{"data":{"norad_id":65933,"intl_designator":"2025-225Z","name":"STARLINK-35192","alt_names":[],"object_type":"PAYLOAD","status":"ACTIVE","operator":null,"country":"US","launch_date":"2025-10-08","launch_site_code":"AFWTR","launch_vehicle":null,"mission":null,"orbit_class":"UNKNOWN","rcs_meters":null,"size_class":null,"mass_kg":null,"dimensions":null,"purposes":["comms"],"wikipedia_slug":null,"has_3d_model":false,"image_url":null,"decayed_at":null,"tle_current":{"epoch":"2026-05-25T02:16:06.347424Z","epoch_age_seconds":77173,"freshness":"FRESH","line1":"1 65933U 25225Z   26145.09451791  .00014396  00000+0  44796-3 0  9991","line2":"2 65933  53.1592 170.9557 0001133  96.8445 263.2686 15.33566388 36102","mean_motion":15.33566388,"eccentricity":0.0001133,"inclination_deg":53.1592,"raan_deg":170.9557,"arg_perigee_deg":96.8445,"mean_anomaly_deg":263.2686,"bstar":0.00044796,"rev_number":3610,"period_min":93.898771599838,"perigee_km":464.40668497071,"apogee_km":465.95738106359,"semimajor_km":6843.3190330171,"source":"CELESTRAK","updated_at":"2026-05-25T13:38:20.991156Z"}}}